User: anonymous   Login
Location: Bangkok
(13.7500°N, 100.5170°E)
Time: 00:35:29
(UTC+07:00)
Language:

SPOT 1/Viking Rocket - Orbit

View from above orbital plane
View from above orbital plane
View from above satellite
View from above satellite

Ground track
Ground track

The orbit data is extracted from the following two-line orbital elements,

1 16615U 86019C   16337.21330589  .00000062  00000-0  39970-4 0  9994
2 16615  98.6388  39.7504 0010722 264.3753 162.4176 14.31628295611313
Epoch (UTC): 02 December 2016 05:07:09
Eccentricity: 0.0010722
inclination: 98.6388°
perigee height: 778 km
apogee height: 794 km
right ascension of ascending node: 39.7504°
argument of perigee: 264.3753°
revolutions per day: 14.31628295
mean anomaly at epoch: 162.4176°
orbit number at epoch: 61131

The dashed part of the orbit path shows where the satellite is in the earth's shadow,  

DLR